Pertusola — IBER — position and weather

sailwx.info

Track history (hours):
 
Tides and Currents Weather Stations Pressure Air Temp Water Temp Dewpoint Dewpoint Depression Visibility Wind Speed Wind Dir Waves Ship Positions

Pertusola

Last reported at 2014-Aug-28 00:08 UTC. Time now 2014-Aug-28 11:28 UTC.
Position N 36°28' W 002°03'.

Length 145 m; draft 9.2 m.

Type: Ship (hazmat cat A). MMSI: 247399000.

Date/timePositionNaut miles runAvg speedWind from/ knotsBaromVisibWave heightAir tempDewpointWater temp
2014-Aug-28 00:08N 36°28' W 002°03'915.0
2014-Aug-27 23:33N 36°29' W 001°52'5115.0
2014-Aug-27 20:08N 36°38' W 000°49'915.1
2014-Aug-27 19:32N 36°39' W 000°38'1515.1
2014-Aug-27 18:33N 36°41' W 000°20'1614.6
2014-Aug-27 17:29N 36°44' W 000°00'1614.5
2014-Aug-27 16:23N 36°47' E 000°19'1213.9
2014-Aug-27 15:33N 36°49' E 000°34'1414.1
2014-Aug-27 14:33N 36°52' E 000°51'1514.5
2014-Aug-27 13:32N 36°54' E 001°09'1414.3
2014-Aug-27 12:33N 36°57' E 001°27'1414.5
2014-Aug-27 11:34N 36°59' E 001°44'1514.4
2014-Aug-27 10:33N 37°01' E 002°02'1414.6
2014-Aug-27 09:33N 37°05' E 002°20'1514.6
2014-Aug-27 08:33N 37°08' E 002°37'1414.1
2014-Aug-27 07:32N 37°10' E 002°55'1313.3
2014-Aug-27 06:32N 37°12' E 003°12'1313.4
2014-Aug-27 05:33N 37°14' E 003°28'2114.5
2014-Aug-27 04:05N 37°17' E 003°55'914.5
2014-Aug-27 03:27N 37°19' E 004°06'1314.5
2014-Aug-27 02:33N 37°21' E 004°22'1514.3
2014-Aug-27 01:32N 37°24' E 004°40'1414.3
2014-Aug-27 00:33N 37°26' E 004°57'1614.7
2014-Aug-26 23:28N 37°29' E 005°17'1415.2
2014-Aug-26 22:33N 37°31' E 005°35'1915.9
2014-Aug-26 21:23N 37°34' E 005°58'1214.4
2014-Aug-26 20:32N 37°37' E 006°13'1514.7
2014-Aug-26 19:33N 37°39' E 006°31'1614.6
2014-Aug-26 18:28N 37°42' E 006°51'3014.9
2014-Aug-26 16:26N 37°47' E 007°28'1314.0
2014-Aug-26 15:32N 37°50' E 007°44'1414.6
2014-Aug-26 14:33N 37°52' E 008°02'1514.5
2014-Aug-26 13:32N 37°54' E 008°20'1414.6
2014-Aug-26 12:33N 37°57' E 008°38'1514.5
2014-Aug-26 11:33N 37°59' E 008°56'1515.1
2014-Aug-26 10:33N 37°59' E 009°15'1515.1
2014-Aug-26 09:33N 37°59' E 009°35'1514.8
2014-Aug-26 08:33N 37°59' E 009°53'1514.6
2014-Aug-26 07:33N 37°60' E 010°12'1414.4
2014-Aug-26 06:33N 37°60' E 010°30'1514.5
2014-Aug-26 05:32N 38°00' E 010°49'14313.6
2014-Aug-25 19:03N 37°04' E 013°34'714.2
2014-Aug-25 18:34N 37°00' E 013°42'1414.1
2014-Aug-25 17:34N 36°53' E 013°57'1413.9
2014-Aug-25 16:33N 36°46' E 014°12'1413.9
2014-Aug-25 15:33N 36°41' E 014°28'8213.6
2014-Aug-25 09:29N 35°42' E 015°39'24514.5
2014-Aug-24 16:33N 32°14' E 018°15'4713.9
2014-Aug-24 13:10N 31°35' E 018°46'1414.2
2014-Aug-24 12:12N 31°23' E 018°54'1214.4
2014-Aug-24 11:22N 31°13' E 019°02'1314.5
2014-Aug-24 10:28N 31°02' E 019°10'  
2014-Aug-21 17:15N 32°51' E 018°55'5614.7
2014-Aug-21 13:28N 33°33' E 018°12'1414.9
2014-Aug-21 12:32N 33°44' E 018°01'1514.9
2014-Aug-21 11:33N 33°55' E 017°50'5 4.7
2014-Aug-21 10:34N 33°58' E 017°46'3 2.6
2014-Aug-21 09:33N 33°58' E 017°49'2 1.9
2014-Aug-21 08:33N 33°57' E 017°51'1 0.9
2014-Aug-21 07:33N 33°56' E 017°51'7 6.7
2014-Aug-21 06:34N 33°53' E 017°58'1813.9
2014-Aug-21 05:16N 33°45' E 018°18'20 7.5
2014-Aug-21 02:33N 33°36' E 018°39'0 0.5
2014-Aug-21 01:33N 33°36' E 018°40'1 0.5
2014-Aug-21 00:32N 33°36' E 018°41'5 4.4
2014-Aug-20 23:17N 33°40' E 018°35'2110.0
2014-Aug-20 21:12N 33°54' E 018°17'0 0.3
2014-Aug-20 20:30N 33°54' E 018°17'5 2.8
2014-Aug-20 18:33N 33°49' E 018°19'1010.0
2014-Aug-20 17:33N 33°43' E 018°09'1615.7
2014-Aug-20 16:33N 33°51' E 017°53'1515.4
2014-Aug-20 15:33N 34°03' E 017°41'1515.0
2014-Aug-20 14:33N 34°14' E 017°29'1514.9
2014-Aug-20 13:33N 34°25' E 017°17'1514.7
2014-Aug-20 12:33N 34°37' E 017°06'1514.9
2014-Aug-20 11:33N 34°48' E 016°54'1514.9
2014-Aug-20 10:33N 34°59' E 016°42'1514.9
2014-Aug-20 09:33N 35°10' E 016°30'1514.9
2014-Aug-20 08:33N 35°21' E 016°18'1714.9
2014-Aug-20 07:26N 35°35' E 016°05'1314.7
2014-Aug-20 06:33N 35°44' E 015°55'1514.9
2014-Aug-20 05:33N 35°55' E 015°43'1515.1
2014-Aug-20 04:33N 36°07' E 015°31'1515.5
2014-Aug-20 03:33N 36°18' E 015°18'1615.5
2014-Aug-20 02:33N 36°30' E 015°05'1615.8
2014-Aug-20 01:33N 36°36' E 014°47'1515.4
2014-Aug-20 00:33N 36°41' E 014°29'1615.8
2014-Aug-19 23:33N 36°47' E 014°10'1515.3
2014-Aug-19 22:33N 36°55' E 013°54'14914.8
2014-Aug-19 12:29N 37°60' E 011°05'6315.4
2014-Aug-19 08:22N 38°00' E 009°45'1215.1
2014-Aug-19 07:33N 38°01' E 009°30'1815.1
2014-Aug-19 06:23N 38°00' E 009°07'1415.4
2014-Aug-19 05:28N 37°60' E 008°49'3015.8
2014-Aug-19 03:32N 38°00' E 008°11'6315.0
2014-Aug-18 23:19N 37°60' E 006°50'2714.8
2014-Aug-18 21:29N 38°00' E 006°16'5613.8
2014-Aug-18 17:27N 38°00' E 005°05'1414.3
2014-Aug-18 16:30N 38°00' E 004°48'5614.1
2014-Aug-18 12:33N 37°60' E 003°37'1414.2
2014-Aug-18 11:33N 38°00' E 003°19'3114.6
2014-Aug-18 09:24N 37°60' E 002°39'5814.8
2014-Aug-18 05:28N 37°44' E 001°28'2115.5
2014-Aug-18 04:06N 37°35' E 001°04'814.9
2014-Aug-18 03:33N 37°31' E 000°55'1715.4
2014-Aug-18 02:26N 37°24' E 000°35'2914.9
2014-Aug-18 00:27N 37°11' E 000°02'  
Track history (hours):
 
Tides and Currents Weather Stations Pressure Air Temp Water Temp Dewpoint Dewpoint Depression Visibility Wind Speed Wind Dir Waves Ship Positions

Pertusola

Last reported at 2014-Aug-28 00:08 UTC. Time now 2014-Aug-28 11:28 UTC.
Position N 36°28' W 002°03'.

Length 145 m; draft 9.2 m.

Type: Ship (hazmat cat A). MMSI: 247399000.

Date/timePositionNaut miles runAvg speedWind from/ knotsBaromVisibWave heightAir tempDewpointWater temp
2014-Aug-28 00:08N 36°28' W 002°03'915.0
2014-Aug-27 23:33N 36°29' W 001°52'5115.0
2014-Aug-27 20:08N 36°38' W 000°49'915.1
2014-Aug-27 19:32N 36°39' W 000°38'1515.1
2014-Aug-27 18:33N 36°41' W 000°20'1614.6
2014-Aug-27 17:29N 36°44' W 000°00'1614.5
2014-Aug-27 16:23N 36°47' E 000°19'1213.9
2014-Aug-27 15:33N 36°49' E 000°34'1414.1
2014-Aug-27 14:33N 36°52' E 000°51'1514.5
2014-Aug-27 13:32N 36°54' E 001°09'1414.3
2014-Aug-27 12:33N 36°57' E 001°27'1414.5
2014-Aug-27 11:34N 36°59' E 001°44'1514.4
2014-Aug-27 10:33N 37°01' E 002°02'1414.6
2014-Aug-27 09:33N 37°05' E 002°20'1514.6
2014-Aug-27 08:33N 37°08' E 002°37'1414.1
2014-Aug-27 07:32N 37°10' E 002°55'1313.3
2014-Aug-27 06:32N 37°12' E 003°12'1313.4
2014-Aug-27 05:33N 37°14' E 003°28'2114.5
2014-Aug-27 04:05N 37°17' E 003°55'914.5
2014-Aug-27 03:27N 37°19' E 004°06'1314.5
2014-Aug-27 02:33N 37°21' E 004°22'1514.3
2014-Aug-27 01:32N 37°24' E 004°40'1414.3
2014-Aug-27 00:33N 37°26' E 004°57'1614.7
2014-Aug-26 23:28N 37°29' E 005°17'1415.2
2014-Aug-26 22:33N 37°31' E 005°35'1915.9
2014-Aug-26 21:23N 37°34' E 005°58'1214.4
2014-Aug-26 20:32N 37°37' E 006°13'1514.7
2014-Aug-26 19:33N 37°39' E 006°31'1614.6
2014-Aug-26 18:28N 37°42' E 006°51'3014.9
2014-Aug-26 16:26N 37°47' E 007°28'1314.0
2014-Aug-26 15:32N 37°50' E 007°44'1414.6
2014-Aug-26 14:33N 37°52' E 008°02'1514.5
2014-Aug-26 13:32N 37°54' E 008°20'1414.6
2014-Aug-26 12:33N 37°57' E 008°38'1514.5
2014-Aug-26 11:33N 37°59' E 008°56'1515.1
2014-Aug-26 10:33N 37°59' E 009°15'1515.1
2014-Aug-26 09:33N 37°59' E 009°35'1514.8
2014-Aug-26 08:33N 37°59' E 009°53'1514.6
2014-Aug-26 07:33N 37°60' E 010°12'1414.4
2014-Aug-26 06:33N 37°60' E 010°30'1514.5
2014-Aug-26 05:32N 38°00' E 010°49'14313.6
2014-Aug-25 19:03N 37°04' E 013°34'714.2
2014-Aug-25 18:34N 37°00' E 013°42'1414.1
2014-Aug-25 17:34N 36°53' E 013°57'1413.9
2014-Aug-25 16:33N 36°46' E 014°12'1413.9
2014-Aug-25 15:33N 36°41' E 014°28'8213.6
2014-Aug-25 09:29N 35°42' E 015°39'24514.5
2014-Aug-24 16:33N 32°14' E 018°15'4713.9
2014-Aug-24 13:10N 31°35' E 018°46'1414.2
2014-Aug-24 12:12N 31°23' E 018°54'1214.4
2014-Aug-24 11:22N 31°13' E 019°02'1314.5
2014-Aug-24 10:28N 31°02' E 019°10'  
2014-Aug-21 17:15N 32°51' E 018°55'5614.7
2014-Aug-21 13:28N 33°33' E 018°12'1414.9
2014-Aug-21 12:32N 33°44' E 018°01'1514.9
2014-Aug-21 11:33N 33°55' E 017°50'5 4.7
2014-Aug-21 10:34N 33°58' E 017°46'3 2.6
2014-Aug-21 09:33N 33°58' E 017°49'2 1.9
2014-Aug-21 08:33N 33°57' E 017°51'1 0.9
2014-Aug-21 07:33N 33°56' E 017°51'7 6.7
2014-Aug-21 06:34N 33°53' E 017°58'1813.9
2014-Aug-21 05:16N 33°45' E 018°18'20 7.5
2014-Aug-21 02:33N 33°36' E 018°39'0 0.5
2014-Aug-21 01:33N 33°36' E 018°40'1 0.5
2014-Aug-21 00:32N 33°36' E 018°41'5 4.4
2014-Aug-20 23:17N 33°40' E 018°35'2110.0
2014-Aug-20 21:12N 33°54' E 018°17'0 0.3
2014-Aug-20 20:30N 33°54' E 018°17'5 2.8
2014-Aug-20 18:33N 33°49' E 018°19'1010.0
2014-Aug-20 17:33N 33°43' E 018°09'1615.7
2014-Aug-20 16:33N 33°51' E 017°53'1515.4
2014-Aug-20 15:33N 34°03' E 017°41'1515.0
2014-Aug-20 14:33N 34°14' E 017°29'1514.9
2014-Aug-20 13:33N 34°25' E 017°17'1514.7
2014-Aug-20 12:33N 34°37' E 017°06'1514.9
2014-Aug-20 11:33N 34°48' E 016°54'1514.9
2014-Aug-20 10:33N 34°59' E 016°42'1514.9
2014-Aug-20 09:33N 35°10' E 016°30'1514.9
2014-Aug-20 08:33N 35°21' E 016°18'1714.9
2014-Aug-20 07:26N 35°35' E 016°05'1314.7
2014-Aug-20 06:33N 35°44' E 015°55'1514.9
2014-Aug-20 05:33N 35°55' E 015°43'1515.1
2014-Aug-20 04:33N 36°07' E 015°31'1515.5
2014-Aug-20 03:33N 36°18' E 015°18'1615.5
2014-Aug-20 02:33N 36°30' E 015°05'1615.8
2014-Aug-20 01:33N 36°36' E 014°47'1515.4
2014-Aug-20 00:33N 36°41' E 014°29'1615.8
2014-Aug-19 23:33N 36°47' E 014°10'1515.3
2014-Aug-19 22:33N 36°55' E 013°54'14914.8
2014-Aug-19 12:29N 37°60' E 011°05'6315.4
2014-Aug-19 08:22N 38°00' E 009°45'1215.1
2014-Aug-19 07:33N 38°01' E 009°30'1815.1
2014-Aug-19 06:23N 38°00' E 009°07'1415.4
2014-Aug-19 05:28N 37°60' E 008°49'3015.8
2014-Aug-19 03:32N 38°00' E 008°11'6315.0
2014-Aug-18 23:19N 37°60' E 006°50'2714.8
2014-Aug-18 21:29N 38°00' E 006°16'5613.8
2014-Aug-18 17:27N 38°00' E 005°05'1414.3
2014-Aug-18 16:30N 38°00' E 004°48'5614.1
2014-Aug-18 12:33N 37°60' E 003°37'1414.2
2014-Aug-18 11:33N 38°00' E 003°19'3114.6
2014-Aug-18 09:24N 37°60' E 002°39'5814.8
2014-Aug-18 05:28N 37°44' E 001°28'2115.5
2014-Aug-18 04:06N 37°35' E 001°04'814.9
2014-Aug-18 03:33N 37°31' E 000°55'1715.4
2014-Aug-18 02:26N 37°24' E 000°35'2914.9
2014-Aug-18 00:27N 37°11' E 000°02'  

Dump ship's entire track history